| time (UTC) | temp F | wind direction | speed knots | gust knots | rain 1hr in | rain 24hr in | rain mn in | humidity % | barometer mb |
| 20260506003141 | 37 | 322 | 0.9 | 7.8 | 0.00 | 0.00 | 0.00 | 56 | 1011.2 |
| 20260506002141 | 37 | 322 | 0.9 | 7.8 | 0.00 | 0.00 | 0.00 | 56 | 1011.2 |
| 20260506001141 | 37 | 287 | 4.3 | 7.8 | 0.00 | 0.00 | 0.00 | 54 | 1010.8 |
| 20260506000142 | 37 | 287 | 4.3 | 7.8 | 0.00 | 0.00 | 0.00 | 54 | 1010.8 |
| 20260505235142 | 37 | 274 | 1.7 | 7.0 | 0.00 | 0.00 | 0.00 | 55 | 1010.8 |
| 20260505234142 | 37 | 274 | 1.7 | 7.0 | 0.00 | 0.00 | 0.00 | 55 | 1010.8 |
| 20260505233141 | 38 | 292 | 1.7 | 7.8 | 0.00 | 0.00 | 0.00 | 54 | 1010.7 |
| 20260505232141 | 38 | 292 | 1.7 | 7.8 | 0.00 | 0.00 | 0.00 | 54 | 1010.7 |
| 20260505231141 | 38 | 196 | 0.9 | 7.8 | 0.00 | 0.00 | 0.00 | 54 | 1010.7 |
| 20260505230142 | 38 | 196 | 0.9 | 7.8 | 0.00 | 0.00 | 0.00 | 54 | 1010.7 |
| 20260505225141 | 38 | 241 | 0.9 | 7.8 | 0.00 | 0.00 | 0.00 | 53 | 1010.5 |
| 20260505224142 | 38 | 241 | 0.9 | 7.8 | 0.00 | 0.00 | 0.00 | 53 | 1010.5 |
| 20260505221142 | 38 | 279 | 4.3 | 8.7 | 0.00 | 0.00 | 0.00 | 55 | 1010.4 |
| 20260505220143 | 38 | 279 | 4.3 | 8.7 | 0.00 | 0.00 | 0.00 | 55 | 1010.4 |
| 20260505215141 | 38 | 300 | 1.7 | 11.3 | 0.00 | 0.00 | 0.00 | 55 | 1010.2 |
| 20260505214143 | 38 | 189 | 3.5 | 7.8 | 0.00 | 0.00 | 0.00 | 54 | 1010.1 |
| 20260505213143 | 38 | 189 | 3.5 | 7.8 | 0.00 | 0.00 | 0.00 | 54 | 1010.1 |
| 20260505212142 | 38 | 275 | 0.9 | 11.3 | 0.00 | 0.00 | 0.00 | 54 | 1009.9 |
| 20260505211143 | 38 | 275 | 0.9 | 11.3 | 0.00 | 0.00 | 0.00 | 54 | 1009.9 |
| 20260505210143 | 38 | 320 | 0.9 | 8.7 | 0.00 | 0.00 | 0.00 | 54 | 1009.9 |
| 20260505205142 | 38 | 320 | 0.9 | 8.7 | 0.00 | 0.00 | 0.00 | 54 | 1009.9 |
| 20260505204147 | 38 | 268 | 0.9 | 10.4 | 0.00 | 0.00 | 0.00 | 53 | 1009.8 |
| 20260505203142 | 38 | 268 | 0.9 | 10.4 | 0.00 | 0.00 | 0.00 | 53 | 1009.8 |
| 20260505202143 | 38 | 328 | 2.6 | 8.7 | 0.00 | 0.00 | 0.00 | 53 | 1009.8 |
| 20260505201142 | 38 | 328 | 2.6 | 8.7 | 0.00 | 0.00 | 0.00 | 53 | 1009.8 |
| 20260505200143 | 38 | 217 | 5.2 | 7.8 | 0.00 | 0.00 | 0.00 | 53 | 1009.8 |
| 20260505195143 | 38 | 217 | 5.2 | 7.8 | 0.00 | 0.00 | 0.00 | 53 | 1009.8 |
| 20260505194143 | 37 | 44 | 1.7 | 10.4 | 0.00 | 0.00 | 0.00 | 53 | 1009.7 |
| 20260505193144 | 37 | 44 | 1.7 | 10.4 | 0.00 | 0.00 | 0.00 | 53 | 1009.7 |
| 20260505192144 | 37 | 18 | 5.2 | 9.6 | 0.00 | 0.00 | 0.00 | 52 | 1009.6 |
| 20260505191144 | 37 | 18 | 5.2 | 9.6 | 0.00 | 0.00 | 0.00 | 52 | 1009.6 |
| 20260505190143 | 37 | 5 | 6.1 | 10.4 | 0.00 | 0.00 | 0.00 | 52 | 1009.6 |
| 20260505185143 | 37 | 5 | 6.1 | 10.4 | 0.00 | 0.00 | 0.00 | 52 | 1009.6 |
| 20260505184144 | 36 | 178 | 4.3 | 7.8 | 0.00 | 0.00 | 0.00 | 54 | 1009.4 |
| 20260505183143 | 36 | 311 | 9.6 | 8.7 | 0.00 | 0.00 | 0.00 | 53 | 1009.3 |
| 20260505182143 | 36 | 311 | 9.6 | 8.7 | 0.00 | 0.00 | 0.00 | 53 | 1009.3 |
| 20260505181144 | 35 | 192 | 3.5 | 9.6 | 0.00 | 0.00 | 0.00 | 58 | 1009.1 |
| 20260505180144 | 35 | 192 | 3.5 | 9.6 | 0.00 | 0.00 | 0.00 | 58 | 1009.1 |
| 20260505174144 | 34 | 13 | 0.0 | 11.3 | 0.00 | 0.00 | 0.00 | 61 | 1009.0 |
| 20260505173145 | 34 | 230 | 5.2 | 8.7 | 0.00 | 0.00 | 0.00 | 64 | 1008.7 |
| 20260505172145 | 34 | 230 | 5.2 | 8.7 | 0.00 | 0.00 | 0.00 | 64 | 1008.7 |
| 20260505171145 | 33 | 326 | 7.0 | 12.2 | 0.00 | 0.00 | 0.00 | 65 | 1008.7 |
| 20260505170144 | 33 | 326 | 7.0 | 12.2 | 0.00 | 0.00 | 0.00 | 65 | 1008.7 |
| 20260505164145 | 32 | 280 | 3.5 | 8.7 | 0.00 | 0.00 | 0.00 | 68 | 1008.6 |
| 20260505163143 | 31 | 129 | 0.9 | 11.3 | 0.00 | 0.00 | 0.00 | 69 | 1008.3 |
| 20260505162144 | 31 | 129 | 0.9 | 11.3 | 0.00 | 0.00 | 0.00 | 69 | 1008.3 |
| 20260505161144 | 31 | 58 | 0.9 | 9.6 | 0.00 | 0.00 | 0.00 | 69 | 1008.0 |
| 20260505160145 | 31 | 58 | 0.9 | 9.6 | 0.00 | 0.00 | 0.00 | 69 | 1008.0 |
| 20260505153144 | 30 | 210 | 7.0 | 15.6 | 0.00 | 0.00 | 0.00 | 67 | 1007.9 |
| 20260505152144 | 30 | 331 | 2.6 | 10.4 | 0.00 | 0.00 | 0.00 | 67 | 1007.5 |
| 20260505151146 | 30 | 331 | 2.6 | 10.4 | 0.00 | 0.00 | 0.00 | 67 | 1007.5 |
| 20260505150144 | 30 | 35 | 1.7 | 10.4 | 0.00 | 0.00 | 0.00 | 67 | 1007.2 |
| 20260505140146 | 29 | 338 | 3.5 | 12.2 | 0.00 | 0.00 | 0.00 | 63 | 1006.4 |
| 20260505130145 | 31 | 243 | 0.9 | 12.2 | 0.00 | 0.00 | 0.00 | 66 | 1005.8 |
| 20260505124145 | 30 | 261 | 3.5 | 8.7 | 0.00 | 0.00 | 0.00 | 70 | 1005.7 |
| 20260505123146 | 30 | 261 | 3.5 | 8.7 | 0.00 | 0.00 | 0.00 | 70 | 1005.7 |
| 20260505122145 | 29 | 11 | 4.3 | 7.8 | 0.00 | 0.01 | 0.00 | 72 | 1005.5 |
| 20260505121145 | 29 | 328 | 0.9 | 7.0 | 0.00 | 0.02 | 0.00 | 73 | 1005.4 |
| 20260505120146 | 29 | 328 | 0.9 | 7.0 | 0.00 | 0.02 | 0.00 | 73 | 1005.4 |
| 20260505115146 | 29 | 299 | 1.7 | 12.2 | 0.00 | 0.02 | 0.00 | 73 | 1005.1 |
| 20260505114146 | 29 | 299 | 1.7 | 12.2 | 0.00 | 0.02 | 0.00 | 73 | 1005.1 |
| 20260505113146 | 29 | 61 | 1.7 | 9.6 | 0.00 | 0.02 | 0.00 | 74 | 1004.9 |
| 20260505112145 | 29 | 61 | 1.7 | 9.6 | 0.00 | 0.02 | 0.00 | 74 | 1004.9 |
| 20260505111146 | 29 | 312 | 7.0 | 8.7 | 0.00 | 0.02 | 0.00 | 75 | 1004.6 |
| 20260505110146 | 29 | 312 | 7.0 | 8.7 | 0.00 | 0.02 | 0.00 | 75 | 1004.6 |
| 20260505102146 | 29 | 355 | 7.8 | 11.3 | 0.00 | 0.02 | 0.00 | 79 | 1004.2 |
| 20260505101146 | 29 | 215 | 5.2 | 13.9 | 0.00 | 0.02 | 0.00 | 79 | 1004.0 |
| 20260505100146 | 29 | 215 | 5.2 | 13.9 | 0.00 | 0.02 | 0.00 | 79 | 1004.0 |
| 20260505095146 | 30 | 307 | 1.7 | 10.4 | 0.00 | 0.02 | 0.00 | 79 | 1003.8 |
| 20260505094147 | 30 | 307 | 1.7 | 10.4 | 0.00 | 0.02 | 0.00 | 79 | 1003.8 |
| 20260505091146 | 31 | 192 | 1.7 | 11.3 | 0.00 | 0.02 | 0.00 | 80 | 1003.4 |
| 20260505090146 | 31 | 223 | 5.2 | 7.0 | 0.00 | 0.02 | 0.00 | 81 | 1003.1 |
| 20260505085146 | 31 | 223 | 5.2 | 7.0 | 0.00 | 0.02 | 0.00 | 81 | 1003.1 |
| 20260505084147 | 31 | 266 | 1.7 | 8.7 | 0.00 | 0.02 | 0.00 | 83 | 1003.1 |
| 20260505083146 | 31 | 266 | 1.7 | 8.7 | 0.00 | 0.02 | 0.00 | 83 | 1003.1 |
| 20260505082146 | 30 | 106 | 4.3 | 6.1 | 0.00 | 0.02 | 0.00 | 83 | 1003.0 |
| 20260505081146 | 30 | 106 | 4.3 | 6.1 | 0.00 | 0.02 | 0.00 | 83 | 1003.0 |
| 20260505080147 | 31 | 348 | 1.7 | 7.0 | 0.00 | 0.02 | 0.00 | 81 | 1002.9 |
| 20260505075147 | 31 | 348 | 1.7 | 7.0 | 0.00 | 0.02 | 0.00 | 81 | 1002.9 |
| 20260505074147 | 31 | 311 | 0.9 | 7.8 | 0.00 | 0.02 | 0.00 | 80 | 1002.9 |
| 20260505073147 | 31 | 311 | 0.9 | 7.8 | 0.00 | 0.02 | 0.00 | 80 | 1002.9 |
| 20260505072147 | 31 | 355 | 0.9 | 7.0 | 0.00 | 0.02 | 0.00 | 79 | 1002.7 |
| 20260505071147 | 31 | 355 | 0.9 | 7.0 | 0.00 | 0.02 | 0.00 | 79 | 1002.7 |
| 20260505070148 | 31 | 328 | 0.9 | 7.0 | 0.00 | 0.02 | 0.00 | 79 | 1002.7 |
| 20260505064148 | 32 | 281 | 0.9 | 7.8 | 0.00 | 0.02 | 0.00 | 80 | 1002.7 |
| 20260505063147 | 32 | 281 | 0.9 | 7.8 | 0.00 | 0.02 | 0.00 | 80 | 1002.7 |
| 20260505062148 | 32 | 300 | 3.5 | 5.2 | 0.00 | 0.02 | 0.00 | 79 | 1002.7 |
| 20260505061148 | 32 | 300 | 3.5 | 5.2 | 0.00 | 0.02 | 0.00 | 79 | 1002.7 |
| 20260505060147 | 32 | 306 | 1.7 | 6.1 | 0.00 | 0.02 | 0.00 | 79 | 1002.5 |
| 20260505055149 | 33 | 306 | 0.9 | 4.3 | 0.00 | 0.02 | 0.00 | 78 | 1002.4 |
| 20260505054148 | 33 | 306 | 0.9 | 4.3 | 0.00 | 0.02 | 0.00 | 78 | 1002.4 |
| 20260505053147 | 33 | 342 | 0.9 | 6.1 | 0.00 | 0.02 | 0.00 | 78 | 1002.3 |
| 20260505052147 | 33 | 342 | 0.9 | 6.1 | 0.00 | 0.02 | 0.00 | 78 | 1002.3 |
| 20260505051148 | 34 | 294 | 0.9 | 6.1 | 0.00 | 0.02 | 0.02 | 79 | 1002.1 |
| 20260505050148 | 34 | 294 | 0.9 | 6.1 | 0.00 | 0.02 | 0.02 | 79 | 1002.1 |
| 20260505041149 | 35 | 290 | 4.3 | 6.1 | 0.00 | 0.02 | 0.02 | 76 | 1001.7 |
| 20260505040149 | 35 | 290 | 4.3 | 6.1 | 0.00 | 0.02 | 0.02 | 76 | 1001.7 |
| 20260505035149 | 35 | 334 | 0.0 | 5.2 | 0.00 | 0.02 | 0.02 | 75 | 1001.8 |
| 20260505034148 | 35 | 334 | 0.0 | 5.2 | 0.00 | 0.02 | 0.02 | 75 | 1001.8 |
| 20260505033149 | 36 | 299 | 0.9 | 8.7 | 0.00 | 0.02 | 0.02 | 74 | 1001.7 |
| 20260505032148 | 36 | 299 | 0.9 | 8.7 | 0.00 | 0.02 | 0.02 | 74 | 1001.7 |
| 20260505031149 | 36 | 300 | 0.9 | 6.1 | 0.00 | 0.02 | 0.02 | 73 | 1001.4 |
| 20260505030149 | 36 | 300 | 0.9 | 6.1 | 0.00 | 0.02 | 0.02 | 73 | 1001.4 |
| 20260505025148 | 37 | 209 | 2.6 | 7.8 | 0.00 | 0.02 | 0.02 | 71 | 1001.2 |
| 20260505024149 | 37 | 219 | 2.6 | 6.1 | 0.00 | 0.02 | 0.02 | 71 | 1001.0 |
| 20260505023150 | 37 | 219 | 2.6 | 6.1 | 0.00 | 0.02 | 0.02 | 71 | 1001.0 |
| 20260505022149 | 38 | 243 | 2.6 | 9.6 | 0.00 | 0.02 | 0.02 | 70 | 1000.8 |
| 20260505021149 | 38 | 243 | 2.6 | 9.6 | 0.00 | 0.02 | 0.02 | 70 | 1000.8 |
| 20260505020149 | 39 | 232 | 1.7 | 6.1 | 0.00 | 0.02 | 0.02 | 65 | 1000.6 |
| 20260505015149 | 39 | 232 | 1.7 | 6.1 | 0.00 | 0.02 | 0.02 | 65 | 1000.6 |
| 20260505014149 | 40 | 315 | 0.9 | 7.8 | 0.00 | 0.02 | 0.02 | 60 | 1000.1 |
| 20260505013150 | 40 | 315 | 0.9 | 7.8 | 0.00 | 0.02 | 0.02 | 60 | 1000.1 |
| 20260505012149 | 40 | 306 | 0.9 | 7.0 | 0.00 | 0.02 | 0.02 | 59 | 999.9 |
| 20260505011149 | 40 | 306 | 0.9 | 7.0 | 0.00 | 0.02 | 0.02 | 59 | 999.9 |
| 20260505010150 | 40 | 268 | 3.5 | 9.6 | 0.00 | 0.02 | 0.02 | 58 | 999.7 |
| 20260505005149 | 40 | 268 | 3.5 | 9.6 | 0.00 | 0.02 | 0.02 | 58 | 999.7 |
| 20260505004149 | 41 | 242 | 1.7 | 13.9 | 0.00 | 0.02 | 0.02 | 58 | 999.5 |